Regional Weather Roundup
Issued by NWS

Home | Current Version | Previous Version | Graphics & Text | Print | Product List | Glossary On
Versions: 1 2 3 4 5 6 7 8 9 10 11 12 13 14 15 16 17 18 19 20 21 22 23 24 25 26 27 28 29 30 31 32 33 34 35 36 37 38 39 40 41 42 43 44 45 46 47 48 49 50
844
ASUS44 KLIX 282305
RWRLA
LOUISIANA WEATHER ROUNDUP
NATIONAL WEATHER SERVICE NEW ORLEANS LA
500 PM CST FRI NOV 28 2014

NOTE: "FAIR" INDICATES FEW OR NO CLOUDS BELOW 12,000 FEET WITH NO
      SIGNIFICANT WEATHER AND/OR OBSTRUCTIONS TO VISIBILITY.
      SKY/WX - SKY CONDITION AND SIGNIFICANT WEATHER.
      TMP - AIR TEMPERATURE.    DP   - DEWPOINT TEMPERATURE.
      RH  - RELATIVE HUMIDITY.  PRES - PRESSURE.
      HX  - HEAT INDEX.         WCI  - WIND CHILL INDEX.

*  THESE STATIONS ARE NOT NWS OR FAA STATIONS AND ARE NOT UNDER
   NWS QUALITY CONTROL.

LAZ040-048-061>063-065-066-069-290000-
SOUTHEAST LOUISIANA

CITY           SKY/WX    TMP DP  RH WIND       PRES   REMARKS
N.O. AUDUBON   NOT AVBL
N.O. INTL ARPT PTCLDY    56  42  59 E6        30.30R
N.O. LAKEFRONT CLEAR     54  42  64 SE8       30.31S
N.O. DOWNTOWN* FAIR      55  39  54 S8        30.31S
SLIDELL        CLEAR     52  39  61 S5        30.30S
BATON ROUGE    CLEAR     57  32  38 SE5       30.27S
BOOTHVILLE     CLEAR     56  49  77 E5        30.31S
BELLE CHASSE   PTCLDY    54  42  64 SE6       30.30S
BOGALUSA*        N/A     56  29  35 SW3       30.30S
NEW ROADS*     FAIR      58  34  40 SE6       30.26F
GONZALES*      FAIR      58  42  55 NE3       30.28S
HAMMOND*       CLEAR     54  32  43 SE5       30.31S
HOUMA*         CLEAR     55  45  67 SE7       30.29F
PORT FOURCHON* CLEAR     59  50  72 E6        30.33S

$$

LAZ041-044-053-054-290000-
SOUTHWEST LOUISIANA

CITY           SKY/WX    TMP DP  RH WIND       PRES   REMARKS
LAKE CHARLES   PTCLDY    59  53  80 SE9       30.23F
LAFAYETTE      PTCLDY    58  49  72 S6        30.26F SMOKE
PATTERSON      CLEAR     57  45  62 SE7       30.30S
SALT POINT       N/A     61  49  64 SE8       30.27F
NEW IBERIA     CLEAR     59  49  69 S7        30.27F
CHENAULT AIRPK NOT AVBL

$$

LAZ027-028-290000-
CENTRAL LOUISIANA

CITY           SKY/WX    TMP DP  RH WIND       PRES   REMARKS
FORT POLK      MOCLDY    60  49  67 S10       30.20F
ALEXANDRIA INT CLEAR     59  43  55 S6        30.21S
ALEXANDRIA     CLEAR     58  40  51 S5        30.22F

$$

LAZ001-002-290000-
NORTHWEST LOUISIANA

CITY           SKY/WX    TMP DP  RH WIND       PRES   REMARKS
SHREVEPORT     PTCLDY    61  42  49 S10       30.14S
BARKSDALE AFB  CLEAR     61  41  46 S9        30.14F
DTN SHREVEPORT CLEAR     61  40  45 S10       30.14F

$$

LAZ014-016-290000-
NORTHEAST LOUISIANA

CITY           SKY/WX    TMP DP  RH WIND       PRES   REMARKS
MONROE         CLEAR     57  37  47 S7        30.20S
TALLULAH       CLEAR     54  31  41 S8        30.22F

$$




USA.gov is the U.S. government's official web portal to all federal, state and local government web resources and services.